User: anonymous   Login
Location: Montr�al
(45.5000°N, 73.5830°W)
Time: 04:18:29
(UTC-04:00)
Language:

Cosmos 1470 Rocket - Orbit

View from above orbital plane
View from above orbital plane
View from above satellite
View from above satellite

Ground track
Ground track

The orbit data is extracted from the following two-line orbital elements,

1 14148U 83061B   15179.61946437  .00000178  00000-0  18812-4 0  9999
2 14148 082.5183 223.4487 0021654 180.0345 293.8425 14.83028681728186
Epoch (UTC): 28 June 2015 14:52:01
Eccentricity: 0.0021654
inclination: 82.5183°
perigee height: 604 km
apogee height: 635 km
right ascension of ascending node: 223.4487°
argument of perigee: 180.0345°
revolutions per day: 14.83028681
mean anomaly at epoch: 293.8425°
orbit number at epoch: 72818

The dashed part of the orbit path shows where the satellite is in the earth's shadow,  

DLR